User: anonymous   Login
Location: Brede
(50.9167°N, 0.6000°E)
Time: 11:07:15
(UTC+00:00)
Language:

Lacrosse 4 Rocket - Orbit

View from above orbital plane
View from above orbital plane
View from above satellite
View from above satellite

Ground track
Ground track

The orbit data is extracted from the following two-line orbital elements,

1 26474U 00047B   20299.82848875 +.00000170 +00000-0 +25595-4 0  9994
2 26474 067.9936 076.8142 0052070 050.8756 309.6997 14.96004945098741
Epoch (UTC): 25 October 2020 19:53:01
Eccentricity: 0.0052070
inclination: 67.9936°
perigee height: 543 km
apogee height: 615 km
right ascension of ascending node: 76.8142°
argument of perigee: 50.8756°
revolutions per day: 14.96004945
mean anomaly at epoch: 309.6997°
orbit number at epoch: 9874

The dashed part of the orbit path shows where the satellite is in the earth's shadow,  

DLR